ATLAS CENTAUR 2 1 00694U 63047A 26072.64775017 .00002235 00000+0 26288-3 0 9993 2 00694 30.3515 173.5220 0547662 115.1616 250.6795 14.12083127132187 THOR AGENA D R/B 1 00733U 64002A 26072.98765643 .00000270 00000+0 11361-3 0 9993 2 00733 99.1223 86.5594 0032028 245.2465 114.5384 14.34023080238915 SL-3 R/B 1 00877U 64053B 26072.93481440 .00000248 00000+0 72221-4 0 9991 2 00877 65.0781 318.7922 0079884 290.8845 68.3716 14.61371971267416 SL-8 R/B 1 02802U 67045B 26072.93474773 .00000380 00000+0 11263-3 0 9991 2 02802 74.0139 340.1625 0064409 345.4252 14.5046 14.45626921 89633 SL-8 R/B 1 03230U 68040B 26072.96888117 .00003378 00000+0 25066-3 0 9993 2 03230 74.0314 304.9506 0023747 127.0511 233.2854 15.03287197 90656 OAO 2 1 03597U 68110A 26072.85333184 .00000282 00000+0 81052-4 0 9993 2 03597 34.9925 241.9760 0006115 236.0350 123.9760 14.47310523 19704 ISIS 1 1 03669U 69009A 26072.70257787 .00000171 00000+0 10543-3 0 9992 2 03669 88.4537 154.8712 1707838 81.0671 297.8981 11.30415770348981 SERT 2 1 04327U 70009A 26072.32568034 .00000008 00000+0 67097-4 0 9990 2 04327 99.2761 15.2203 0005191 146.6829 7.2096 13.58730231780380 SL-3 R/B 1 05118U 71028B 26072.95025943 .00046294 00000+0 53613-3 0 9992 2 05118 81.2358 46.7650 0013236 266.4104 93.5636 15.61522029989337 ASTEX 1 1 05560U 71089A 26072.96069886 .00000562 00000+0 14284-3 0 9994 2 05560 92.7115 153.1406 0017743 73.3285 286.9867 14.50774793862923 SL-8 R/B 1 05730U 71119B 26072.76238701 .00013072 00000+0 68060-3 0 9990 2 05730 73.8867 168.1050 0548171 133.8936 230.8870 14.37968742656079 OAO 3 (COPERNICUS) 1 06153U 72065A 26072.92192586 .00000397 00000+0 85796-4 0 9991 2 06153 35.0052 273.2032 0006859 201.5055 294.8467 14.60001909846814 ATLAS CENTAUR R/B 1 06155U 72065B 26072.88262861 .00001486 00000+0 20556-3 0 9994 2 06155 35.0010 281.1817 0033113 44.4019 315.9329 14.77700357841881 SL-8 R/B 1 08459U 75112B 26072.95487443 .00000265 00000+0 95650-4 0 9994 2 08459 74.0634 11.0665 0014432 102.4699 257.8071 14.38206445632486 SL-3 R/B 1 10114U 77057B 26072.92732108 .00014879 00000+0 31053-3 0 9995 2 10114 97.5778 245.0349 0006160 266.7031 93.3513 15.45624338668989 SEASAT 1 1 10967U 78064A 26072.92313221 .00000261 00000+0 11137-3 0 9992 2 10967 108.0101 134.3832 0002377 284.3042 75.7840 14.46163930507125 SL-14 R/B 1 11267U 79011B 26072.47053375 .00000694 00000+0 65950-4 0 9993 2 11267 82.5205 92.9822 0017200 48.8388 311.4312 14.91913438529343 SL-8 R/B 1 11574U 79089B 26072.42155193 .00000314 00000+0 10293-3 0 9993 2 11574 74.0667 84.1345 0017114 256.4414 103.4836 14.42353288436643 SL-14 R/B 1 11672U 80005B 26072.88872850 .00000615 00000+0 59599-4 0 9995 2 11672 82.5137 303.2531 0016522 144.8431 215.3882 14.90935557477110 SL-8 R/B 1 12139U 81003B 26072.97413022 .00022366 00000+0 57125-3 0 9994 2 12139 82.9384 286.0622 0261737 163.7107 197.2747 15.11151671315329 SL-3 R/B 1 12465U 81046B 26072.93736437 .00014207 00000+0 32908-3 0 9994 2 12465 81.2296 284.6429 0019212 7.6746 352.4787 15.42110535439085 SL-3 R/B 1 12904U 81103B 26072.91575085 .00007174 00000+0 31778-3 0 9993 2 12904 81.1588 208.4744 0012358 271.5104 88.4712 15.21433923973874 SL-3 R/B 1 13068U 82013B 26072.92206973 .00004811 00000+0 20776-3 0 9995 2 13068 81.1758 155.8105 0022855 163.1775 197.0221 15.22060968404994 SL-3 R/B 1 13154U 82039B 26072.89752908 .00003138 00000+0 18930-3 0 9999 2 13154 81.1576 211.1107 0029540 310.7122 49.1537 15.10108606382272 SL-3 R/B 1 13403U 82079B 26072.93228460 .00008164 00000+0 32446-3 0 9998 2 13403 81.1479 188.0680 0025237 150.5542 209.7119 15.24867789378346 SL-14 R/B 1 13553U 82092B 26072.63313476 .00000528 00000+0 56604-4 0 9997 2 13553 82.5689 137.7115 0018839 289.4979 230.7637 14.86670719329516 SL-3 R/B 1 13819U 83010B 26072.25508695 .00017425 00000+0 34825-3 0 9994 2 13819 81.1059 357.8766 0017762 39.4433 320.8101 15.46493922358498 SL-3 R/B 1 14208U 83075B 26072.97984715 .00012162 00000+0 31974-3 0 9993 2 14208 97.6143 77.7198 0020533 209.6151 150.3932 15.38528561330815 COSMOS 1536 1 14699U 84013A 26072.79115265 .00007116 00000+0 29297-3 0 9994 2 14699 82.5428 103.7728 0012467 267.2106 92.7704 15.23883436273242 SL-14 R/B 1 14820U 84027B 26072.93539330 .00000607 00000+0 66583-4 0 9992 2 14820 82.5392 241.0296 0017022 323.2528 36.7520 14.85981509248262 SL-8 R/B 1 15483U 85006B 26072.98327669 .00000385 00000+0 13622-3 0 9999 2 15483 74.0432 253.2469 0018266 169.9686 310.0381 14.37786524154645 SL-12 R/B(2) 1 15772U 85042D 26072.44243043 .00000181 00000+0 10268-3 0 9991 2 15772 71.1063 79.7994 0033085 121.9535 41.1642 14.21983557114922 SL-14 R/B 1 15945U 85069B 26072.91888970 .00000617 00000+0 66933-4 0 9993 2 15945 82.5292 20.9568 0018854 173.5972 186.5489 14.86438606173462 SL-16 R/B 1 16182U 85097B 26072.89218957 -.00000054 00000+0 -29998-5 0 9995 2 16182 71.0019 131.7073 0009793 254.5746 278.0960 14.16598144 87821 SL-14 R/B 1 16496U 86006B 26072.96215774 .00000804 00000+0 82986-4 0 9992 2 16496 82.5236 255.7149 0075072 258.3339 100.9446 14.86821655149847 COSMOS 1743 1 16719U 86034A 26072.94331496 .00038915 00000+0 50084-3 0 9996 2 16719 82.5292 69.3651 0001607 252.8944 107.2137 15.58879274180918 SL-14 R/B 1 16792U 86046B 26072.98333485 .00000536 00000+0 58915-4 0 9994 2 16792 82.4782 76.1233 0022253 210.5368 149.4554 14.85594946127040 SL-14 R/B 1 16882U 86055B 26072.59401692 .00000493 00000+0 53995-4 0 9992 2 16882 82.5194 123.0043 0017866 323.1063 201.7881 14.85646556119946 AJISAI (EGS) 1 16908U 86061A 26072.97619218 -.00000094 00000+0 20384-4 0 9999 2 16908 50.0082 80.1659 0011283 298.0398 151.1603 12.44515651468531 SL-14 R/B 1 17567U 87024B 26072.47652631 .00000554 00000+0 60351-4 0 9990 2 17567 82.5245 89.2034 0016778 246.2870 113.6587 14.86136139 88692 COSMOS 1833 1 17589U 87027A 26072.96607723 -.00000200 00000+0 -81174-4 0 9999 2 17589 70.9213 317.0316 0024057 208.4818 151.4991 14.13053638 10920 SL-16 R/B 1 17590U 87027B 26072.92735470 .00000041 00000+0 44274-4 0 9999 2 17590 70.9994 267.5645 0003200 133.3139 226.8252 14.17166621 15946 SL-14 R/B 1 17912U 87038B 26072.87763879 .00000478 00000+0 52545-4 0 9991 2 17912 82.4994 292.8621 0020017 147.0690 213.1778 14.85373206 79852 COSMOS 1844 1 17973U 87041A 26072.92599499 -.00000117 00000+0 -35405-4 0 9991 2 17973 70.9003 25.2396 0030247 11.6281 348.5533 14.14551431 4183 SL-14 R/B 1 18153U 87055B 26072.24763471 .00000603 00000+0 66647-4 0 9995 2 18153 82.5031 345.6792 0020847 6.2682 353.8791 14.85634056 70465 COSMOS 1867 1 18187U 87060A 26072.91240943 -.00000019 00000+0 30411-4 0 9998 2 18187 65.0106 294.8799 0014537 278.8372 81.1067 14.31503723 20543 SL-14 R/B 1 18749U 88001B 26072.31055613 .00000656 00000+0 73050-4 0 9992 2 18749 82.5157 191.9553 0017047 222.9540 137.0346 14.85532783 42562 COSMOS 1933 1 18958U 88020A 26072.94294184 .00005325 00000+0 26024-3 0 9998 2 18958 82.5105 246.7029 0004261 168.4222 191.7111 15.18029252 50878 SL-3 R/B 1 19046U 88032B 26072.94594755 .00005870 00000+0 27390-3 0 9999 2 19046 97.5194 56.1818 0024751 215.8184 144.1392 15.19963859 52753 SL-16 R/B 1 19120U 88039B 26072.36251505 .00000162 00000+0 99422-4 0 9993 2 19120 71.0138 60.7806 0022967 328.9599 31.0168 14.19616171958900 COSMOS 1953 1 19210U 88050A 26072.94618272 .00008558 00000+0 30577-3 0 9990 2 19210 82.5104 153.9670 0012581 109.2753 250.9848 15.28604061 38437 SL-8 R/B 1 19257U 88053B 26072.27425661 .00000289 00000+0 10214-3 0 9997 2 19257 74.0455 105.8585 0021477 284.6463 149.2613 14.38918132977118 COSMOS 1975 1 19573U 88093A 26072.52282384 .00007979 00000+0 28920-3 0 9999 2 19573 82.5183 113.8374 0012521 150.4889 209.7059 15.28127804 19995 SL-14 R/B 1 19574U 88093B 26072.97468997 .00000689 00000+0 76423-4 0 9998 2 19574 82.5312 38.0211 0021458 27.9881 43.4022 14.85662506 1659 SL-16 R/B 1 19650U 88102B 26072.93111559 .00000228 00000+0 13921-3 0 9991 2 19650 70.9996 142.5732 0014228 354.9106 5.1870 14.16154866927496 INTERCOSMOS 24 1 20261U 89080A 26072.77402872 .00000804 00000+0 23946-3 0 9998 2 20261 82.6020 101.7439 1186677 283.3309 63.8376 12.59564721667318 SL-14 R/B 1 20262U 89080C 26072.31676343 .00000622 00000+0 18192-3 0 9990 2 20262 82.5974 170.8587 1230673 176.4619 184.6280 12.50498591660602 DELTA 1 R/B 1 20323U 89089B 26072.82836677 .00000409 00000+0 10954-3 0 9992 2 20323 97.0703 279.6088 0070635 109.1386 251.7476 14.50666794896336 ARIANE 40 R/B 1 20443U 90005H 26072.91350210 .00000291 00000+0 10613-3 0 9990 2 20443 98.3074 133.4490 0010110 185.5170 174.5909 14.39873538893411 DELTA 2 R/B(1) 1 20453U 90008B 26072.54443414 .00075823 00000+0 87109-3 0 9999 2 20453 35.6032 149.5449 0084140 294.2576 64.9388 15.56513638926731 COSMOS 2058 1 20465U 90010A 26072.95167043 .00004757 00000+0 28022-3 0 9998 2 20465 82.4666 43.2278 0008705 330.4336 29.6401 15.11363268942888 SL-14 R/B 1 20466U 90010B 26072.93602690 .00000512 00000+0 59208-4 0 9995 2 20466 82.4987 263.3987 0018373 287.2742 72.6462 14.83573016929117 SL-14 R/B 1 20511U 90018B 26072.89044040 .00000595 00000+0 71595-4 0 9992 2 20511 82.5210 219.1630 0017618 79.3331 280.9866 14.82150039923208 HST 1 20580U 90037B 26072.92291013 .00008620 00000+0 28446-3 0 9990 2 20580 28.4723 11.1207 0001777 167.7784 192.2855 15.29556322773961 SL-16 R/B 1 20625U 90046B 26072.93870190 -.00000099 00000+0 -26331-4 0 9996 2 20625 70.9978 288.9905 0016190 293.9574 65.9853 14.15011256848994 COSMOS 2084 1 20663U 90055A 26072.97244503 .00002665 00000+0 19692-3 0 9995 2 20663 62.7915 320.9716 0016418 191.1309 168.9431 15.05678292936961 SL-6 R/B(2) 1 20666U 90055D 26072.89444519 .00002465 00000+0 19275-3 0 9993 2 20666 62.7824 239.5510 0025477 348.0578 11.9914 15.03617639938822 SL-8 R/B 1 20775U 90078B 26072.94312380 .00017388 00000+0 51266-3 0 9991 2 20775 82.8999 247.4844 0361314 359.6974 0.3966 14.89210490809933 SL-8 R/B 1 21088U 91006B 26072.32859919 .00000071 00000+0 55832-4 0 9992 2 21088 82.9465 167.3408 0022864 28.4025 31.7202 13.77494777764577 OKEAN-3 1 21397U 91039A 26072.66870196 .00004072 00000+0 28584-3 0 9996 2 21397 82.5200 332.9891 0013593 322.6481 37.3800 15.04839137865633 COSMOS 2151 1 21422U 91042A 26072.95236189 .00002698 00000+0 21384-3 0 9992 2 21422 82.4929 79.5629 0013772 50.6644 309.5798 15.00123072863830 SL-14 R/B 1 21423U 91042B 26072.80928416 .00000587 00000+0 71305-4 0 9992 2 21423 82.4932 216.3193 0016020 224.1030 135.8908 14.81834487853680 ERS-1 1 21574U 91050A 26072.93750061 .00000348 00000+0 12590-3 0 9996 2 21574 98.7877 91.2787 0031859 187.7541 172.3158 14.39452900816346 ARIANE 40 R/B 1 21610U 91050F 26072.90900112 .00000329 00000+0 11093-3 0 9994 2 21610 98.2004 124.9870 0004215 72.0589 288.1061 14.42896973819602 INTERCOSMOS 25 1 21819U 91086A 26072.95045014 .00002121 00000+0 40877-3 0 9994 2 21819 82.6046 307.4329 1486888 107.7557 269.0983 12.12014954497200 SL-8 R/B 1 21876U 92008B 26072.94889706 .00000009 00000+0 -65888-5 0 9990 2 21876 82.9222 264.6090 0035716 121.7976 346.3725 13.75969757710000 SL-8 R/B 1 21938U 92020B 26072.33069983 .00000048 00000+0 34424-4 0 9996 2 21938 82.9331 151.0586 0027613 288.1754 140.4512 13.75549826701635 USA 81 1 21949U 92023A 26072.85026680 .00000174 00000+0 57183-4 0 9992 2 21949 85.0076 129.0410 0002353 74.3719 285.7733 14.32369362 95383 COSMOS 2219 1 22219U 92076A 26072.97749459 .00000003 00000+0 26308-4 0 9996 2 22219 71.0640 9.1048 0018738 201.0583 158.9770 14.14093587718986 SL-16 R/B 1 22220U 92076B 26072.74052111 -.00000066 00000+0 -90577-5 0 9996 2 22220 71.0008 179.8415 0010499 88.9218 72.9860 14.16859187722407 COSMOS 2221 1 22236U 92080A 26072.91752194 .00002149 00000+0 18796-3 0 9998 2 22236 82.5010 275.0304 0014407 172.8663 187.2767 14.96219175781428 SL-16 R/B 1 22285U 92093B 26072.97971099 -.00000084 00000+0 -18726-4 0 9991 2 22285 71.0241 355.2607 0006356 289.1357 70.9078 14.15447017713768 COSMOS 2228 1 22286U 92094A 26072.93107415 .00003030 00000+0 25907-3 0 9992 2 22286 82.5159 233.2487 0016651 289.2543 70.6878 14.97215069776698 SL-16 R/B 1 22566U 93016B 26072.80851853 -.00000074 00000+0 -13385-4 0 9991 2 22566 71.0080 206.5300 0012085 308.6473 51.3568 14.15309346702757 COSMOS 2242 1 22626U 93024A 26072.91506730 .00002220 00000+0 19255-3 0 9994 2 22626 82.5154 262.6739 0014958 293.3920 66.5728 14.96567460781025 SL-16 R/B 1 22803U 93059B 26072.92352331 .00000020 00000+0 33447-4 0 9992 2 22803 70.9929 2.1985 0018290 210.3056 149.7012 14.17231457680132 ARIANE 40 R/B 1 22830U 93061H 26072.88840049 .00000217 00000+0 95277-4 0 9995 2 22830 98.4908 141.6931 0009573 271.2192 88.7896 14.32863354694709 COSMOS 2278 1 23087U 94023A 26072.27533716 -.00000032 00000+0 77144-5 0 9992 2 23087 71.0551 167.5967 0008316 6.5779 353.5451 14.14379565645314 SL-16 R/B 1 23088U 94023B 26072.95642119 -.00000186 00000+0 -71220-4 0 9995 2 23088 70.9984 61.9248 0005661 281.3931 78.6555 14.15010486646692 SL-16 R/B 1 23343U 94074B 26072.98677226 .00000531 00000+0 77824-4 0 9993 2 23343 97.7103 103.6305 0006091 195.0236 225.7884 14.79413417687888 SL-16 R/B 1 23405U 94077B 26072.93639217 .00000190 00000+0 12154-3 0 9993 2 23405 70.9852 343.5559 0002856 206.7335 153.3641 14.15562299616839 ARIANE 40+ R/B 1 23561U 95021B 26072.93870344 .00000319 00000+0 11552-3 0 9998 2 23561 98.4490 144.3637 0007800 125.2258 48.0723 14.39775823619853 SL-16 R/B 1 23705U 95058B 26072.73158747 .00000300 00000+0 17789-3 0 9990 2 23705 71.0225 171.7697 0010649 118.5576 241.6620 14.15498196568421 SL-16 R/B 1 24298U 96051B 26072.70706169 .00000092 00000+0 76164-4 0 9997 2 24298 70.7603 166.7361 0014729 141.8931 218.3233 14.12416894522214 ORBVIEW 2 (SEASTAR) 1 24883U 97037A 26072.94851945 .00000333 00000+0 13195-3 0 9993 2 24883 98.8575 237.3733 0002980 63.2058 296.9431 14.35498387509088 SL-16 R/B 1 25400U 98043G 26072.30992726 .00000083 00000+0 53558-4 0 9990 2 25400 98.8258 25.6990 0010036 10.3984 349.7401 14.26050761439500 SL-16 R/B 1 25407U 98045B 26072.31673297 .00000299 00000+0 17501-3 0 9995 2 25407 71.0121 173.9471 0006972 2.5500 357.5658 14.16192002427615 ISS (ZARYA) 1 25544U 98067A 26072.70791847 .00011780 00000+0 22432-3 0 9992 2 25544 51.6324 52.4887 0007884 189.2977 170.7866 15.48633802556952 CZ-4B R/B 1 25732U 99025C 26072.97002932 .00000064 00000+0 51794-4 0 9992 2 25732 98.6618 117.1501 0036521 334.1685 92.7431 14.18266250388776 OKEAN-O 1 25860U 99039A 26072.91034617 .00000772 00000+0 10803-3 0 9999 2 25860 97.9432 132.7587 0001148 71.7622 288.3715 14.80342970435014 SL-16 R/B 1 25861U 99039B 26072.88623589 .00000646 00000+0 88710-4 0 9991 2 25861 97.9958 131.9768 0013627 241.0979 118.8866 14.81737940437485 DELTA 2 R/B 1 25876U 99041E 26072.90167898 .00001382 00000+0 26070-3 0 9997 2 25876 51.7621 284.4563 0502476 0.8549 359.3133 14.11851718363628 HELIOS 1B 1 25977U 99064A 26072.27855123 .00002187 00000+0 24634-3 0 9997 2 25977 98.1688 334.6271 0002410 70.5247 289.6228 14.87715338685799 TERRA 1 25994U 99068A 26072.90335856 .00000491 00000+0 10912-3 0 9996 2 25994 97.9585 126.1770 0002951 141.9494 334.0999 14.61019656395695 SL-16 R/B 1 26070U 00006B 26072.33308346 -.00000193 00000+0 -73708-4 0 9991 2 26070 71.0005 90.1760 0016539 184.8331 175.2635 14.15825076349076 TITAN 4B R/B 1 26474U 00047B 26072.93699428 .00005169 00000+0 32338-3 0 9993 2 26474 67.9902 28.5663 0038675 30.4000 329.9380 15.09609287393550 ENVISAT 1 27386U 02009A 26072.84352692 .00000157 00000+0 64752-4 0 9993 2 27386 98.3734 26.3421 0001313 83.0931 286.8334 14.39038703259774 IDEFIX & ARIANE 42P R/B 1 27422U 02021B 26072.76097688 .00000336 00000+0 14401-3 0 9994 2 27422 98.5871 11.3186 0011810 170.0708 190.0711 14.31029449244603 AQUA 1 27424U 02022A 26072.92843609 .00001167 00000+0 24260-3 0 9994 2 27424 98.4180 40.3707 0000591 96.8971 327.1426 14.61988253269354 CZ-4B R/B 1 27432U 02024C 26072.91418185 .00000050 00000+0 48626-4 0 9994 2 27432 98.8830 126.2993 0050278 12.2752 160.4440 14.14548492229834 MIDORI II (ADEOS-II) 1 27597U 02056A 26072.30393977 .00000377 00000+0 16588-3 0 9998 2 27597 98.7772 30.8065 0001456 38.7795 321.3491 14.29288390210810 H-2A R/B 1 27601U 02056E 26072.81596676 .00000327 00000+0 12902-3 0 9992 2 27601 98.3207 33.0246 0070747 148.4529 227.3363 14.33763913214703 CZ-4B R/B 1 28059U 03049C 26072.92219410 .00000442 00000+0 11300-3 0 9992 2 28059 98.6880 67.9930 0047422 217.7404 142.0463 14.55024700187210 CZ-2C R/B 1 28222U 04012C 26072.12645194 .00059904 00000+0 60765-3 0 9995 2 28222 97.7223 137.7453 0012933 295.2646 64.7272 15.64944388204815 SL-16 R/B 1 28353U 04021B 26072.41691379 -.00000281 00000+0 -12159-3 0 9998 2 28353 70.9996 224.6701 0004293 3.8877 356.2278 14.14596418123367 CZ-4B R/B 1 28415U 04035C 26072.83560710 .00009485 00000+0 33329-3 0 9997 2 28415 97.3501 107.0287 0030585 316.1574 43.7238 15.29142114180545 CZ-2C R/B 1 28480U 04046B 26072.76281790 .00000147 00000+0 69492-4 0 9998 2 28480 98.1981 347.4933 0140100 142.4411 218.6658 14.26993658109083 ARIANE 5 R/B 1 28499U 04049H 26072.94421428 .00000857 00000+0 10094-3 0 9996 2 28499 98.2633 241.5606 0083636 338.0937 21.6708 14.85274516146422 CZ-2D R/B 1 28738U 05024B 26072.94199269 .00048547 00000+0 58700-3 0 9995 2 28738 97.3594 88.2454 0005157 35.8223 324.3379 15.60554268140445 ALOS (DAICHI) 1 28931U 06002A 26072.31521966 .00001674 00000+0 28852-3 0 9996 2 28931 98.1221 28.2525 0000810 63.5750 296.5539 14.69823673 74017 H-2A R/B 1 28932U 06002B 26072.96411892 .00012203 00000+0 60823-3 0 9998 2 28932 98.2410 220.3557 0052030 226.4052 133.2855 15.16520316 95084 RESURS-DK 1 1 29228U 06021A 26072.70123366 .00004129 00000+0 24080-3 0 9999 2 29228 69.9324 226.6452 0001475 158.8768 201.2459 15.12776946 88136 CZ-4B R/B 1 29507U 06046C 26072.56709400 .00005087 00000+0 25810-3 0 9995 2 29507 97.5592 117.4657 0031722 253.2446 106.5306 15.16948471 60636 CZ-2C R/B 1 31114U 07010B 26072.88245327 .00000143 00000+0 84897-4 0 9991 2 31114 98.3981 185.9508 0057872 282.1587 77.3112 14.20247909980318 COSMO-SKYMED 1 1 31598U 07023A 26072.94361116 .00004825 00000+0 42908-3 0 9990 2 31598 97.8882 264.0096 0001578 95.4766 264.6635 14.96574619 15544 COSMOS 2428 1 31792U 07029A 26072.28685737 .00000021 00000+0 36778-4 0 9990 2 31792 70.9437 195.7931 0009262 273.4728 86.5333 14.12946842964605 SL-16 R/B 1 31793U 07029B 26072.96920815 .00000224 00000+0 14069-3 0 9998 2 31793 70.9758 163.3899 0002285 276.3297 257.2299 14.14835008965979 KORONAS-FOTON 1 33504U 09003A 26072.97860707 .00010574 00000+0 23525-3 0 9994 2 33504 82.4272 271.4176 0011606 135.6556 224.5623 15.43413244946403 CZ-2C R/B 1 37731U 11030B 26072.34600343 .00001885 00000+0 24337-3 0 9999 2 37731 97.8544 29.5357 0052063 340.1293 180.5892 14.81238528790639 H-2A R/B 1 38341U 12025E 26072.74388909 .00003661 00000+0 33327-3 0 9990 2 38341 98.4735 40.1151 0043201 300.7371 58.9596 14.95204385748822 SHIJIAN-16 (SJ-16) 1 39358U 13057A 26072.98653351 .00003311 00000+0 32554-3 0 9990 2 39358 74.9729 176.9542 0015320 101.4806 258.8104 14.92370565672143 SL-4 R/B 1 39679U 14021B 26072.91389010 .00015284 00000+0 33586-3 0 9997 2 39679 51.6070 316.6686 0097097 118.4391 242.6419 15.39329651656920 ALOS-2 1 39766U 14029A 26072.97956690 .00002057 00000+0 28185-3 0 9995 2 39766 97.9187 171.5140 0001485 93.7026 266.4355 14.79523429637506 YAOGAN-29 1 41038U 15069A 26072.97774333 .00000878 00000+0 11476-3 0 9991 2 41038 98.0146 101.4189 0001638 30.4553 329.6755 14.83002272556516 ASTRO-H (HITOMI) 1 41337U 16012A 26072.99683742 .00003537 00000+0 20636-3 0 9990 2 41337 31.0005 328.7535 0009697 14.3140 345.7772 15.10037711552885 HXMT (HUIYAN) 1 42758U 17034A 26072.99018870 .00007296 00000+0 36350-3 0 9993 2 42758 43.0162 352.7637 0033268 262.0906 97.6166 15.17532055483198 SAOCOM 1A 1 43641U 18076A 26072.94614925 .00000648 00000+0 87945-4 0 9991 2 43641 97.8899 261.0583 0001464 85.7499 274.3882 14.82146055401995 H-2A R/B 1 43682U 18084L 26072.56282331 .00024537 00000+0 57975-3 0 9997 2 43682 98.8734 290.7791 0025152 12.0440 348.1398 15.41524051406379 SAOCOM 1B 1 46265U 20059A 26072.97738958 .00000211 00000+0 33035-4 0 9993 2 46265 97.8899 260.1868 0001390 84.0221 276.1151 14.82152073299383 CSS (TIANHE) 1 48274U 21035A 26072.74677078 .00031927 00000+0 37303-3 0 9999 2 48274 41.4663 183.4723 0006740 298.0497 61.9660 15.60891715278249 COSMOS 2550 1 48865U 21056A 26071.38646080 -.00000190 00000+0 60433-7 0 9999 2 48865 67.1461 32.7743 0008377 269.6455 90.3740 15.33837293263879 CZ-2C R/B 1 52794U 22058K 26072.94802750 .00038597 00000+0 55593-3 0 9997 2 52794 50.1892 296.3800 0042055 218.9436 140.8503 15.54555425210792 CZ-2C R/B 1 54039U 22132E 26072.98407179 .00053711 00000+0 60170-3 0 9996 2 54039 97.2962 76.4326 0020303 77.8450 282.5081 15.62274493191049 GSLV R/B 1 54149U 22138AN 26072.66526411 .00004263 00000+0 36801-3 0 9992 2 54149 87.3884 165.0325 0023500 133.1842 227.1358 14.96807115184527 XRISM 1 57800U 23137A 26072.93296189 .00006106 00000+0 34552-3 0 9994 2 57800 31.0009 256.2169 0007932 81.2969 278.8568 15.11550993138434 ACS3 1 59588U 24077B 26072.31396019 .00014774 00000+0 11847-1 0 9998 2 59588 97.2045 12.6111 0062790 67.8385 292.9427 13.89761996 94701 SZ-21 MODULE 1 66515U 25246C 26072.57488950 .00042463 00000+0 36005-3 0 9990 2 66515 41.4731 179.4377 0001010 309.0341 51.0410 15.68874146 18689